Terug naar catalogus

FENGYUN 1C DEB

ActiefPO
NORAD 30374·DEBRIS·🇨🇳 China

Gelanceerd May 10, 1999 vanaf Taiyuan Satellite Launch Center

Loading…

Volgende Passages (komende 24 uur)

TLE

VersSource: Space-Track

Epoch: Sep 14, 2026, 13:16 UTC

1 30374U 99025ACM 26257.55345220  .00004958  00000-0  92629-3 0  9997
2 30374  99.2490 159.8455 0039961  49.9212  73.0015 14.64948274 29550

Volg FENGYUN 1C DEB in realtime met AllMySat

Download on the App Store